"startDT [UTC]","vpos","CH4 [ppm]","stdev(CH4) [ppm]","CO2 [ppm]","stdev(CO2) [ppm]","H2O_reported [%]","stdev(H2O_reported)","CavityPressure [torr]","CavityTemp [C]","OutletValve","CH4_dry [ppm]","CO2_dry [ppm]","DasTemp [C]","EtalonTemp [C]","WarmBoxTemp [C]","MPVPosition","T_ECpre [C]","T_EC1 [C]","T_EC2 [C]","p_inlet [hPa]","p_in [hPa]","p_out [hPa]","T_inlet [C]","RH_inlet [%]","dwpt_inlet [C]","T_vent [C]","RH_vent [%]","dwpt_vent [C]","flow_vent [l min-1]","flow_inlet [l min-1]","dwpt_sample [C]","T_room [C]"
2015-05-18 00:00:00,0.0,1.90946,0.00038,403.589,0.032,0.3860,0.0015,139.997,45.000,34186.58792,1.91681,405.486,31.941,45.068,45.000,0.00,0.09,-272.73,-272.78,-5,980,-3,22.1,10.7,-10.1,21.8,11.0,-10.0,5.73,1.94,-8.8,26.4
2015-05-18 00:01:00,0.0,1.90925,0.00046,403.553,0.043,0.3857,0.0021,139.997,45.000,34187.04101,1.91657,405.449,31.947,45.068,45.000,0.00,0.09,-272.72,-272.77,-5,980,-3,22.1,10.6,-10.1,21.8,11.0,-10.0,5.73,1.96,-8.8,26.3
2015-05-18 00:02:00,0.0,1.90904,0.00046,403.571,0.018,0.3837,0.0016,140.004,45.000,34190.57972,1.91637,405.453,31.974,45.068,45.000,0.00,0.09,-272.72,-272.77,-5,980,-3,22.1,10.6,-10.2,21.8,10.9,-10.1,5.73,1.94,-8.8,26.3
2015-05-18 00:03:00,0.0,1.90935,0.00051,403.608,0.059,0.3825,0.0021,140.001,45.000,34190.37219,1.91657,405.483,31.985,45.068,45.000,0.00,0.09,-272.72,-272.78,-5,980,-3,22.1,10.6,-10.2,21.8,10.9,-10.1,5.73,1.95,-8.8,26.3
2015-05-18 00:04:00,0.0,1.90941,0.00024,403.573,0.053,0.3838,0.0016,139.999,45.000,34190.15228,1.91671,405.459,31.995,45.068,45.000,0.00,0.09,-272.73,-272.78,-5,980,-3,22.1,10.6,-10.2,21.8,10.9,-10.1,5.73,1.95,-8.8,26.3
2015-05-18 00:05:00,0.0,1.90930,0.00034,403.545,0.039,0.3863,0.0024,140.001,45.000,34189.06005,1.91663,405.439,31.979,45.068,45.000,0.00,0.09,-272.71,-272.77,-5,979,-3,22.1,10.7,-10.1,21.8,11.0,-10.0,5.73,1.95,-8.8,26.3
2015-05-18 00:06:00,0.0,1.90958,0.00043,403.514,0.039,0.3922,0.0029,140.001,45.000,34187.84057,1.91701,405.438,31.961,45.068,45.000,0.00,0.09,-272.71,-272.78,-5,980,-3,22.1,10.8,-9.9,21.8,11.1,-9.8,5.73,1.95,-8.8,26.3
2015-05-18 00:07:00,0.0,1.90958,0.00035,403.553,0.026,0.3919,0.0018,140.001,45.000,34188.75643,1.91702,405.475,31.961,45.068,45.000,0.00,0.09,-272.72,-272.78,-5,980,-3,22.1,10.8,-9.9,21.8,11.2,-9.8,5.73,1.95,-8.8,26.3
2015-05-18 00:08:00,0.0,1.90952,0.00042,403.597,0.038,0.3912,0.0025,139.994,45.000,34189.71339,1.91698,405.518,31.960,45.068,45.000,0.00,0.09,-272.72,-272.78,-5,980,-3,22.1,10.8,-10.0,21.8,11.1,-9.8,5.73,1.95,-8.8,26.4
2015-05-18 00:09:00,0.0,1.90939,0.00029,403.620,0.041,0.3866,0.0017,139.998,45.000,34189.39148,1.91676,405.517,31.976,45.068,45.000,0.00,0.09,-272.71,-272.77,-5,980,-3,22.1,10.7,-10.1,21.8,11.0,-9.9,5.73,1.95,-8.7,26.4
2015-05-18 00:10:00,0.0,1.90982,0.00027,403.617,0.039,0.3884,0.0019,139.999,45.000,34188.97796,1.91715,405.522,31.994,45.068,45.000,0.00,0.09,-272.72,-272.78,-5,980,-3,22.1,10.7,-10.1,21.8,11.0,-9.9,5.73,1.95,-8.8,26.4
2015-05-18 00:11:00,0.0,1.90971,0.00045,403.630,0.034,0.3888,0.0012,140.005,45.000,34188.80747,1.91715,405.540,32.000,45.068,45.000,0.00,0.09,-272.73,-272.78,-5,980,-3,22.2,10.7,-10.0,21.8,11.1,-9.9,5.73,1.95,-8.7,26.3
2015-05-18 00:12:00,0.0,1.90938,0.00031,403.591,0.024,0.3883,0.0022,140.001,45.000,34190.52580,1.91675,405.498,32.000,45.068,45.000,0.00,0.09,-272.72,-272.78,-5,980,-3,22.1,10.7,-10.1,21.8,11.1,-9.9,5.73,1.95,-8.7,26.3
2015-05-18 00:13:00,0.0,1.90945,0.00025,403.559,0.036,0.3872,0.0023,139.997,45.000,34189.01857,1.91678,405.459,31.999,45.068,45.000,0.00,0.09,-272.72,-272.77,-5,980,-3,22.2,10.7,-10.1,21.8,11.0,-9.9,5.73,1.95,-8.7,26.3
2015-05-18 00:14:00,0.0,1.90958,0.00027,403.588,0.026,0.3876,0.0022,140.000,45.000,34187.19340,1.91695,405.489,31.999,45.068,45.000,0.00,0.09,-272.72,-272.78,-5,980,-3,22.2,10.7,-10.0,21.8,11.0,-9.9,5.73,1.95,-8.7,26.4
2015-05-18 00:15:00,0.0,1.90958,0.00037,403.572,0.034,0.3898,0.0017,140.000,45.000,34189.96704,1.91695,405.487,32.000,45.068,45.000,0.00,0.09,-272.72,-272.78,-5,980,-3,22.2,10.7,-10.0,21.9,11.0,-9.9,5.73,1.94,-8.7,26.3
2015-05-18 00:16:00,0.0,1.90962,0.00023,403.587,0.029,0.3894,0.0019,140.000,45.000,34188.25139,1.91704,405.496,32.000,45.068,45.000,0.00,0.09,-272.72,-272.77,-5,980,-3,22.2,10.8,-10.0,21.9,11.1,-9.8,5.73,1.95,-8.7,26.4
2015-05-18 00:17:00,0.0,1.90956,0.00021,403.595,0.025,0.3906,0.0020,139.998,45.000,34186.27296,1.91701,405.515,32.000,45.068,45.000,0.00,0.09,-272.72,-272.77,-5,980,-3,22.2,10.7,-10.0,21.9,11.1,-9.9,5.73,1.95,-8.7,26.4
2015-05-18 00:18:00,0.0,1.90952,0.00023,403.571,0.031,0.3864,0.0018,140.000,45.000,34186.40669,1.91685,405.468,32.000,45.068,45.000,0.00,0.09,-272.72,-272.78,-5,980,-3,22.2,10.7,-10.1,21.9,11.0,-9.9,5.73,1.95,-8.7,26.4
2015-05-18 00:19:00,0.0,1.90909,0.00025,403.539,0.042,0.3917,0.0024,139.996,45.000,34189.40260,1.91653,405.460,32.000,45.069,45.000,0.00,0.09,-272.72,-272.77,-5,980,-3,22.2,10.8,-9.9,21.9,11.1,-9.8,5.73,1.95,-8.7,26.4
2015-05-18 00:20:00,0.0,1.90917,0.00047,403.528,0.031,0.3925,0.0014,139.999,45.000,34191.17838,1.91664,405.455,32.001,45.069,45.000,0.00,0.09,-272.72,-272.78,-5,980,-3,22.2,10.8,-9.9,21.9,11.1,-9.8,5.73,1.95,-8.7,26.4
2015-05-18 00:21:00,0.0,1.90928,0.00039,403.531,0.028,0.3906,0.0011,139.997,45.000,34190.71190,1.91671,405.447,32.001,45.069,45.000,0.00,0.09,-272.72,-272.78,-5,979,-3,22.2,10.8,-9.9,21.9,11.1,-9.8,5.73,1.95,-8.7,26.4
2015-05-18 00:22:00,0.0,1.90909,0.00037,403.530,0.030,0.3935,0.0025,139.997,45.000,34190.62616,1.91655,405.460,32.016,45.068,45.000,0.00,0.09,-272.71,-272.78,-5,980,-3,22.2,10.8,-9.9,21.9,11.1,-9.8,5.73,1.95,-8.7,26.4
2015-05-18 00:23:00,0.0,1.90932,0.00045,403.540,0.027,0.3886,0.0042,140.000,45.000,34191.05582,1.91670,405.448,32.008,45.068,45.000,0.00,0.09,-272.72,-272.78,-5,980,-3,22.2,10.7,-10.0,21.9,11.1,-9.8,5.73,1.95,-8.7,26.4
2015-05-18 00:24:00,0.0,1.90943,0.00027,403.566,0.019,0.3829,0.0027,139.999,45.000,34193.89163,1.91671,405.446,32.005,45.068,45.000,0.00,0.09,-272.72,-272.78,-5,980,-3,22.2,10.5,-10.2,21.9,10.9,-10.1,5.73,1.95,-8.7,26.4
2015-05-18 00:25:00,0.0,1.90933,0.00036,403.536,0.020,0.3802,0.0019,140.001,45.000,34194.08640,1.91652,405.405,32.011,45.068,45.000,0.00,0.09,-272.72,-272.77,-5,980,-3,22.2,10.4,-10.4,21.9,10.8,-10.2,5.73,1.95,-8.7,26.4
2015-05-18 00:26:00,0.0,1.90974,0.00040,403.571,0.039,0.3802,0.0016,139.998,45.000,34190.80599,1.91700,405.433,32.049,45.068,45.000,0.00,0.09,-272.72,-272.77,-5,980,-3,22.2,10.4,-10.4,21.9,10.7,-10.2,5.73,1.95,-8.7,26.4
2015-05-18 00:27:00,0.0,1.90941,0.00027,403.562,0.032,0.3839,0.0014,139.994,45.000,34191.87321,1.91669,405.444,32.060,45.068,45.000,0.00,0.09,-272.72,-272.78,-5,980,-3,22.2,10.5,-10.2,21.9,10.8,-10.1,5.73,1.95,-8.7,26.4
2015-05-18 00:28:00,0.0,1.90921,0.00041,403.558,0.029,0.3834,0.0015,139.996,45.000,34194.32671,1.91655,405.442,32.053,45.068,45.000,0.00,0.09,-272.72,-272.77,-5,980,-3,22.2,10.5,-10.2,21.9,10.8,-10.1,5.73,1.95,-8.7,26.3
2015-05-18 00:29:00,0.0,1.90929,0.00032,403.542,0.019,0.3890,0.0030,140.001,45.000,34192.69940,1.91660,405.449,32.040,45.068,45.000,0.00,0.09,-272.72,-272.77,-5,980,-3,22.2,10.7,-10.0,21.9,11.0,-9.9,5.73,1.96,-8.7,26.3
2015-05-18 00:30:00,0.0,1.90935,0.00035,403.520,0.040,0.3901,0.0017,139.999,45.000,34192.63871,1.91680,405.437,32.052,45.068,45.000,0.00,0.09,-272.72,-272.78,-5,980,-3,22.2,10.7,-10.0,21.9,11.1,-9.8,5.73,1.96,-8.6,26.4
2015-05-18 00:31:00,0.0,1.90905,0.00036,403.533,0.029,0.3916,0.0016,140.000,45.000,34193.29298,1.91646,405.453,32.057,45.068,45.000,0.00,0.09,-272.72,-272.78,-5,980,-3,22.2,10.8,-9.9,21.9,11.1,-9.8,5.73,1.95,-8.7,26.3
2015-05-18 00:32:00,0.0,1.90915,0.00049,403.515,0.027,0.3916,0.0018,140.003,45.000,34196.45505,1.91660,405.439,32.048,45.068,45.000,0.00,0.09,-272.72,-272.77,-5,980,-3,22.2,10.8,-9.9,21.9,11.1,-9.8,5.73,1.95,-8.7,26.4
2015-05-18 00:33:00,0.0,1.90887,0.00030,403.524,0.020,0.3898,0.0021,139.998,45.000,34197.31951,1.91627,405.436,32.035,45.068,45.000,0.00,0.09,-272.71,-272.77,-5,980,-3,22.2,10.7,-10.0,21.9,11.1,-9.8,5.73,1.95,-8.6,26.4
2015-05-18 00:34:00,0.0,1.90951,0.00032,403.539,0.038,0.3863,0.0019,139.999,45.001,34193.69171,1.91685,405.435,32.045,45.068,45.000,0.00,0.09,-272.72,-272.78,-5,980,-3,22.2,10.6,-10.1,21.9,10.9,-9.9,5.73,1.95,-8.6,26.4
2015-05-18 00:35:00,0.0,1.90924,0.00039,403.553,0.029,0.3866,0.0022,140.000,45.000,34193.98543,1.91660,405.451,32.058,45.069,45.000,0.00,0.09,-272.72,-272.78,-5,980,-3,22.2,10.6,-10.1,21.9,10.9,-10.0,5.73,1.95,-8.6,26.4
2015-05-18 00:36:00,0.0,1.90928,0.00036,403.523,0.027,0.3895,0.0020,140.000,45.000,34194.96502,1.91666,405.434,32.063,45.068,45.000,0.00,0.09,-272.71,-272.77,-5,980,-3,22.2,10.7,-10.0,21.9,11.0,-9.9,5.73,1.95,-8.6,26.4
2015-05-18 00:37:00,0.0,1.90935,0.00032,403.503,0.024,0.3926,0.0018,139.995,45.000,34192.71566,1.91682,405.430,32.065,45.068,45.000,0.00,0.09,-272.72,-272.78,-5,980,-3,22.2,10.8,-9.9,21.9,11.1,-9.7,5.73,1.95,-8.6,26.4
2015-05-18 00:38:00,0.0,1.90874,0.00043,403.454,0.031,0.3961,0.0019,139.999,45.000,34198.20816,1.91629,405.399,32.065,45.068,45.000,0.00,0.09,-272.72,-272.78,-5,980,-3,22.2,10.9,-9.7,21.9,11.2,-9.6,5.73,1.95,-8.6,26.5
2015-05-18 00:39:00,0.0,1.90890,0.00038,403.470,0.027,0.3976,0.0021,139.998,45.000,34195.95695,1.91643,405.421,32.064,45.068,45.000,0.00,0.09,-272.71,-272.77,-5,980,-3,22.2,11.0,-9.7,21.9,11.3,-9.6,5.73,1.95,-8.6,26.5
2015-05-18 00:40:00,0.0,1.90872,0.00038,403.482,0.027,0.3976,0.0023,140.000,45.000,34196.97685,1.91631,405.433,32.070,45.068,45.000,0.00,0.09,-272.72,-272.77,-5,980,-3,22.2,10.9,-9.7,21.9,11.3,-9.6,5.73,1.95,-8.6,26.5
2015-05-18 00:41:00,0.0,1.90883,0.00041,403.505,0.025,0.3983,0.0019,139.999,45.000,34196.85474,1.91642,405.460,32.066,45.068,45.000,0.00,0.09,-272.73,-272.78,-5,980,-3,22.3,10.9,-9.7,22.0,11.3,-9.6,5.73,1.95,-8.6,26.4
2015-05-18 00:42:00,0.0,1.90882,0.00047,403.461,0.043,0.3986,0.0018,139.998,45.000,34198.20600,1.91642,405.417,32.087,45.068,45.000,0.00,0.09,-272.72,-272.78,-5,980,-3,22.3,11.0,-9.7,22.0,11.3,-9.5,5.73,1.95,-8.6,26.4
2015-05-18 00:43:00,0.0,1.90881,0.00035,403.427,0.032,0.3971,0.0023,140.002,45.000,34199.32244,1.91632,405.378,32.078,45.068,45.000,0.00,0.09,-272.72,-272.77,-5,980,-3,22.3,10.9,-9.7,22.0,11.3,-9.5,5.73,1.95,-8.6,26.4
2015-05-18 00:44:00,0.0,1.90871,0.00035,403.458,0.028,0.3929,0.0017,139.998,45.000,34197.69346,1.91619,405.385,32.076,45.068,45.000,0.00,0.09,-272.72,-272.78,-5,980,-3,22.3,10.8,-9.9,22.0,11.1,-9.7,5.73,1.95,-8.6,26.4
2015-05-18 00:45:00,0.0,1.90885,0.00031,403.467,0.028,0.3925,0.0015,140.000,45.000,34198.08126,1.91630,405.393,32.073,45.068,45.000,0.00,0.09,-272.72,-272.77,-5,980,-3,22.3,10.8,-9.9,22.0,11.1,-9.7,5.73,1.95,-8.6,26.5
2015-05-18 00:46:00,0.0,1.90852,0.00037,403.463,0.021,0.3934,0.0017,140.001,45.000,34198.51626,1.91603,405.394,32.074,45.068,45.000,0.00,0.09,-272.71,-272.77,-5,980,-3,22.3,10.8,-9.8,22.0,11.1,-9.7,5.73,1.95,-8.6,26.5
2015-05-18 00:47:00,0.0,1.90884,0.00034,403.453,0.025,0.3961,0.0017,140.000,45.000,34199.10777,1.91632,405.396,32.073,45.068,45.000,0.00,0.09,-272.72,-272.78,-5,980,-3,22.3,10.8,-9.8,22.0,11.2,-9.6,5.73,1.95,-8.6,26.5
2015-05-18 00:48:00,0.0,1.90882,0.00052,403.427,0.028,0.3961,0.0018,139.995,45.000,34196.73076,1.91635,405.370,32.101,45.069,45.000,0.00,0.09,-272.72,-272.78,-5,980,-3,22.3,10.8,-9.8,22.0,11.2,-9.6,5.73,1.95,-8.6,26.5
2015-05-18 00:49:00,0.0,1.90848,0.00040,403.444,0.027,0.3955,0.0021,140.002,45.000,34199.73302,1.91604,405.385,32.108,45.068,45.000,0.00,0.09,-272.71,-272.77,-5,980,-3,22.3,10.8,-9.8,22.0,11.2,-9.6,5.73,1.95,-8.6,26.5
2015-05-18 00:50:00,0.0,1.90860,0.00022,403.393,0.035,0.3991,0.0020,140.000,45.000,34200.86024,1.91616,405.353,32.120,45.068,45.000,0.00,0.09,-272.72,-272.77,-5,980,-3,22.3,10.9,-9.7,22.0,11.3,-9.5,5.73,1.94,-8.6,26.5
2015-05-18 00:51:00,0.0,1.90879,0.00035,403.400,0.026,0.3960,0.0014,139.998,45.000,34200.85507,1.91630,405.343,32.125,45.068,45.000,0.00,0.09,-272.72,-272.79,-5,980,-3,22.3,10.9,-9.8,22.0,11.2,-9.6,5.73,1.95,-8.6,26.5
2015-05-18 00:52:00,0.0,1.90849,0.00029,403.402,0.032,0.3973,0.0016,139.996,45.000,34201.10273,1.91604,405.352,32.132,45.068,45.000,0.00,0.09,-272.72,-272.78,-5,980,-3,22.3,10.9,-9.7,22.0,11.2,-9.6,5.73,1.95,-8.5,26.5
2015-05-18 00:53:00,0.0,1.90864,0.00020,403.427,0.035,0.3970,0.0016,140.002,45.000,34202.86350,1.91619,405.373,32.164,45.068,45.000,0.00,0.09,-272.71,-272.77,-5,980,-3,22.3,10.9,-9.7,22.0,11.2,-9.5,5.73,1.94,-8.6,26.5
2015-05-18 00:54:00,0.0,1.90888,0.00039,403.417,0.032,0.3967,0.0015,139.997,45.000,34200.41528,1.91636,405.367,32.172,45.068,45.000,0.00,0.09,-272.73,-272.77,-5,980,-3,22.3,10.9,-9.7,22.0,11.2,-9.6,5.73,1.95,-8.6,26.5
2015-05-18 00:55:00,0.0,1.90889,0.00036,403.421,0.033,0.3941,0.0015,139.999,45.000,34200.81052,1.91643,405.354,32.182,45.068,45.000,0.00,0.09,-272.72,-272.77,-5,980,-3,22.3,10.8,-9.8,22.0,11.2,-9.6,5.73,1.95,-8.5,26.5
2015-05-18 00:56:00,0.0,1.90862,0.00052,403.438,0.040,0.3983,0.0037,139.997,45.000,34200.71404,1.91620,405.392,32.167,45.068,45.000,0.00,0.09,-272.71,-272.77,-5,980,-3,22.3,10.9,-9.7,22.0,11.2,-9.6,5.73,1.95,-8.5,26.5
2015-05-18 00:57:00,0.0,1.90883,0.00030,403.429,0.040,0.3990,0.0028,139.998,45.000,34198.55658,1.91639,405.388,32.169,45.068,45.000,0.00,0.09,-272.72,-272.78,-5,980,-3,22.3,10.9,-9.7,22.0,11.3,-9.5,5.73,1.95,-8.5,26.5
2015-05-18 00:58:00,0.0,1.90854,0.00043,403.425,0.034,0.3977,0.0018,139.997,45.000,34200.57511,1.91615,405.375,32.150,45.068,45.000,0.00,0.09,-272.72,-272.78,-5,980,-3,22.3,10.9,-9.7,22.0,11.2,-9.5,5.73,1.95,-8.5,26.5
2015-05-18 00:59:00,0.0,1.90856,0.00033,403.467,0.035,0.3946,0.0025,139.995,45.000,34198.45122,1.91601,405.404,32.183,45.068,45.000,0.00,0.09,-272.71,-272.77,-5,981,-3,22.3,10.8,-9.8,22.1,11.1,-9.6,5.73,1.95,-8.5,26.5
2015-05-18 01:00:00,0.0,1.90877,0.00033,403.457,0.038,0.3905,0.0025,140.001,45.000,34201.31213,1.91617,405.376,32.188,45.068,45.000,0.00,0.09,-272.71,-272.77,-5,981,-3,22.3,10.6,-10.0,22.0,11.0,-9.8,5.73,1.95,-8.5,26.5
2015-05-18 01:01:00,0.0,1.90864,0.00036,403.472,0.033,0.3882,0.0019,139.998,45.000,34202.95785,1.91604,405.376,32.188,45.068,45.000,0.00,0.09,-272.72,-272.78,-5,980,-3,22.3,10.6,-10.0,22.0,10.9,-9.9,5.73,1.95,-8.5,26.6
2015-05-18 01:02:00,0.0,1.90875,0.00026,403.477,0.025,0.3885,0.0024,139.998,45.000,34202.16307,1.91613,405.382,32.188,45.068,45.000,0.00,0.09,-272.72,-272.77,-5,980,-3,22.3,10.6,-10.1,22.0,10.9,-9.9,5.73,1.94,-8.5,26.4
2015-05-18 01:03:00,0.0,1.90868,0.00035,403.479,0.027,0.3882,0.0024,140.001,45.000,34203.65475,1.91606,405.385,32.183,45.068,45.000,0.00,0.09,-272.71,-272.77,-5,981,-3,22.3,10.6,-10.1,22.1,10.9,-9.9,5.73,1.95,-8.5,26.4
2015-05-18 01:04:00,0.0,1.90887,0.00042,403.484,0.036,0.3824,0.0015,140.002,45.000,34203.03900,1.91608,405.362,32.189,45.068,45.000,0.00,0.09,-272.72,-272.78,-5,981,-3,22.3,10.4,-10.2,22.0,10.8,-10.1,5.73,1.94,-8.5,26.5
2015-05-18 01:05:00,0.0,1.90873,0.00018,403.454,0.028,0.3864,0.0027,139.999,45.000,34204.01464,1.91613,405.349,32.190,45.068,45.000,0.00,0.09,-272.72,-272.78,-5,980,-3,22.3,10.5,-10.1,22.1,10.8,-10.0,5.73,1.94,-8.5,26.5
2015-05-18 01:06:00,0.0,1.90859,0.00030,403.439,0.026,0.3898,0.0017,139.996,45.000,34203.30730,1.91598,405.349,32.202,45.068,45.000,0.00,0.09,-272.72,-272.78,-5,980,-3,22.3,10.6,-10.0,22.1,10.9,-9.9,5.73,1.95,-8.5,26.4
2015-05-18 01:07:00,0.0,1.90866,0.00032,403.470,0.030,0.3887,0.0017,139.995,45.000,34203.77739,1.91605,405.378,32.216,45.068,45.000,0.00,0.09,-272.72,-272.78,-5,980,-3,22.3,10.6,-10.1,22.1,10.9,-9.9,5.73,1.95,-8.5,26.5
2015-05-18 01:08:00,0.0,1.90857,0.00034,403.433,0.032,0.3936,0.0035,140.000,45.000,34205.03903,1.91606,405.363,32.211,45.068,45.000,0.00,0.09,-272.72,-272.78,-5,981,-3,22.3,10.7,-9.9,22.1,11.0,-9.8,5.73,1.95,-8.5,26.5
2015-05-18 01:09:00,0.0,1.90856,0.00027,403.391,0.034,0.4009,0.0019,139.995,45.000,34203.20049,1.91614,405.358,32.226,45.068,45.000,0.00,0.09,-272.72,-272.77,-5,980,-3,22.4,10.9,-9.6,22.1,11.2,-9.5,5.73,1.94,-8.5,26.6
2015-05-18 01:10:00,0.0,1.90818,0.00040,403.441,0.035,0.4010,0.0016,140.003,45.000,34205.61287,1.91587,405.410,32.210,45.068,45.000,0.00,0.09,-272.72,-272.77,-5,980,-3,22.4,11.0,-9.6,22.1,11.3,-9.5,5.73,1.95,-8.5,26.5
2015-05-18 01:11:00,0.0,1.90819,0.00039,403.418,0.044,0.3984,0.0017,140.004,45.000,34208.45681,1.91573,405.371,32.217,45.068,45.000,0.00,0.09,-272.72,-272.78,-5,981,-3,22.4,10.9,-9.7,22.1,11.2,-9.5,5.73,1.94,-8.5,26.6
2015-05-18 01:12:00,0.0,1.90837,0.00030,403.415,0.031,0.3993,0.0021,140.001,45.000,34207.72795,1.91596,405.378,32.228,45.068,45.000,0.00,0.09,-272.72,-272.78,-5,981,-3,22.4,10.9,-9.7,22.1,11.2,-9.6,5.73,1.94,-8.5,26.5
2015-05-18 01:13:00,0.0,1.90832,0.00027,403.444,0.031,0.3987,0.0031,139.996,45.000,34206.15262,1.91586,405.399,32.231,45.068,45.000,0.00,0.09,-272.72,-272.77,-5,980,-3,22.4,10.9,-9.7,22.1,11.2,-9.5,5.73,1.94,-8.5,26.5
2015-05-18 01:14:00,0.0,1.90845,0.00035,403.431,0.030,0.3950,0.0013,140.000,45.000,34209.74360,1.91596,405.372,32.250,45.068,45.000,0.00,0.09,-272.72,-272.78,-5,980,-3,22.4,10.8,-9.8,22.1,11.1,-9.7,5.73,1.94,-8.4,26.5
2015-05-18 01:15:00,0.0,1.90843,0.00048,403.454,0.021,0.3948,0.0022,139.997,45.000,34208.94273,1.91596,405.389,32.250,45.068,45.000,0.00,0.09,-272.72,-272.78,-5,981,-3,22.4,10.7,-9.8,22.1,11.1,-9.7,5.73,1.94,-8.4,26.5
2015-05-18 01:16:00,0.0,1.90819,0.00035,403.393,0.038,0.3976,0.0025,139.999,45.000,34210.80155,1.91571,405.345,32.252,45.068,45.000,0.00,0.09,-272.71,-272.78,-5,981,-3,22.4,10.8,-9.7,22.1,11.1,-9.6,5.73,1.95,-8.5,26.5
2015-05-18 01:17:00,0.0,1.90831,0.00026,403.429,0.021,0.3925,0.0026,140.000,45.000,34209.35326,1.91578,405.353,32.256,45.068,45.000,0.00,0.09,-272.72,-272.78,-5,981,-3,22.4,10.7,-9.9,22.1,11.0,-9.7,5.73,1.95,-8.4,26.5
2015-05-18 01:18:00,0.0,1.90833,0.00041,403.419,0.027,0.3976,0.0025,139.999,45.000,34208.18808,1.91588,405.369,32.251,45.068,45.000,0.00,0.09,-272.72,-272.78,-5,981,-3,22.4,10.8,-9.7,22.1,11.1,-9.6,5.73,1.94,-8.4,26.6
2015-05-18 01:19:00,0.0,1.90793,0.00041,403.406,0.042,0.4015,0.0023,140.002,45.000,34213.58627,1.91557,405.377,32.250,45.068,45.000,0.00,0.09,-272.72,-272.78,-5,981,-3,22.4,10.9,-9.6,22.1,11.3,-9.4,5.73,1.94,-8.4,26.5
2015-05-18 01:20:00,0.0,1.90811,0.00037,403.388,0.032,0.3996,0.0022,139.998,45.000,34212.62926,1.91566,405.352,32.251,45.068,45.000,0.00,0.09,-272.72,-272.77,-5,981,-3,22.5,10.9,-9.6,22.1,11.2,-9.5,5.73,1.94,-8.4,26.5
2015-05-18 01:21:00,0.0,1.90815,0.00040,403.395,0.036,0.3985,0.0018,139.999,45.000,34211.24812,1.91574,405.348,32.250,45.068,45.000,0.00,0.09,-272.72,-272.78,-5,981,-3,22.4,10.8,-9.7,22.1,11.2,-9.5,5.73,1.94,-8.4,26.6
2015-05-18 01:22:00,0.0,1.90806,0.00034,403.405,0.024,0.4015,0.0025,140.000,45.000,34211.89494,1.91572,405.377,32.250,45.068,45.000,0.00,0.09,-272.72,-272.78,-5,980,-3,22.5,10.9,-9.6,22.1,11.2,-9.5,5.73,1.94,-8.4,26.5
2015-05-18 01:23:00,0.0,1.90819,0.00035,403.398,0.029,0.4007,0.0022,139.997,45.000,34211.66402,1.91575,405.364,32.246,45.068,45.000,0.00,0.09,-272.71,-272.77,-5,982,-3,22.5,10.9,-9.6,22.1,11.2,-9.5,5.73,1.94,-8.4,26.5
2015-05-18 01:24:00,0.0,1.90827,0.00025,403.404,0.028,0.3998,0.0017,140.003,45.000,34212.22793,1.91587,405.367,32.246,45.068,45.000,0.00,0.09,-272.72,-272.78,-5,981,-3,22.5,10.8,-9.6,22.1,11.2,-9.5,5.73,1.94,-8.4,26.5
2015-05-18 01:25:00,0.0,1.90853,0.00031,403.422,0.032,0.3988,0.0027,139.998,45.000,34208.15264,1.91610,405.376,32.250,45.068,45.000,0.00,0.09,-272.72,-272.78,-5,981,-3,22.5,10.8,-9.7,22.1,11.1,-9.6,5.73,1.94,-8.4,26.6
2015-05-18 01:26:00,0.0,1.90826,0.00049,403.434,0.039,0.3996,0.0015,140.003,45.000,34208.60935,1.91587,405.397,32.250,45.068,45.000,0.00,0.09,-272.71,-272.77,-5,981,-3,22.5,10.8,-9.6,22.1,11.2,-9.5,5.73,1.95,-8.4,26.6
2015-05-18 01:27:00,0.0,1.90833,0.00036,403.410,0.042,0.4006,0.0022,139.997,45.000,34210.18819,1.91591,405.379,32.250,45.069,45.000,0.00,0.09,-272.72,-272.77,-5,981,-3,22.5,10.8,-9.6,22.2,11.2,-9.5,5.73,1.94,-8.4,26.6
2015-05-18 01:28:00,0.0,1.90833,0.00037,403.433,0.035,0.3987,0.0016,140.001,45.000,34210.87678,1.91594,405.387,32.250,45.068,45.000,0.00,0.09,-272.72,-272.78,-5,981,-3,22.5,10.8,-9.7,22.2,11.2,-9.5,5.73,1.95,-8.4,26.6
2015-05-18 01:29:00,0.0,1.90849,0.00038,403.435,0.036,0.3964,0.0021,139.999,45.000,34211.17196,1.91601,405.382,32.252,45.069,45.000,0.00,0.09,-272.71,-272.78,-5,981,-3,22.5,10.7,-9.8,22.2,11.1,-9.6,5.73,1.94,-8.4,26.6
2015-05-18 01:30:00,0.0,1.90816,0.00030,403.433,0.024,0.3961,0.0021,139.998,45.000,34212.13129,1.91570,405.377,32.250,45.068,45.000,0.00,0.09,-272.71,-272.78,-5,981,-3,22.5,10.7,-9.8,22.2,11.0,-9.6,5.73,1.94,-8.4,26.6
2015-05-18 01:31:00,0.0,1.90840,0.00043,403.409,0.032,0.3965,0.0032,140.001,45.000,34213.57526,1.91592,405.354,32.255,45.068,45.000,0.00,0.09,-272.72,-272.78,-5,981,-3,22.5,10.7,-9.8,22.2,11.0,-9.6,5.73,1.94,-8.4,26.6
2015-05-18 01:32:00,0.0,1.90841,0.00018,403.413,0.020,0.3978,0.0018,139.999,45.000,34212.00298,1.91595,405.365,32.275,45.069,45.000,0.00,0.09,-272.72,-272.78,-5,980,-3,22.5,10.8,-9.7,22.2,11.1,-9.6,5.73,1.94,-8.4,26.6
2015-05-18 01:33:00,0.0,1.90827,0.00034,403.417,0.028,0.3950,0.0016,140.000,45.000,34212.72079,1.91578,405.357,32.288,45.068,45.000,0.00,0.09,-272.72,-272.77,-5,981,-3,22.5,10.7,-9.8,22.2,11.0,-9.6,5.73,1.94,-8.3,26.7
2015-05-18 01:34:00,0.0,1.90837,0.00030,403.428,0.026,0.3932,0.0015,140.000,45.000,34213.45933,1.91585,405.358,32.294,45.068,45.000,0.00,0.09,-272.72,-272.77,-5,981,-3,22.5,10.6,-9.9,22.2,10.9,-9.7,5.73,1.94,-8.3,26.7
2015-05-18 01:35:00,0.0,1.90800,0.00020,403.391,0.031,0.4016,0.0024,140.000,45.000,34214.21799,1.91563,405.361,32.315,45.068,45.000,0.00,0.09,-272.73,-272.78,-5,980,-3,22.5,10.8,-9.6,22.2,11.1,-9.5,5.73,1.95,-8.3,26.7
2015-05-18 01:36:00,0.0,1.90803,0.00040,403.361,0.035,0.4009,0.0011,139.995,45.000,34214.03288,1.91563,405.328,32.341,45.068,45.000,0.00,0.09,-272.72,-272.78,-5,981,-3,22.5,10.9,-9.6,22.2,11.2,-9.4,5.73,1.94,-8.3,26.7
2015-05-18 01:37:00,0.0,1.90827,0.00029,403.397,0.039,0.4023,0.0018,140.001,45.000,34213.11747,1.91592,405.369,32.338,45.068,45.000,0.00,0.09,-272.72,-272.77,-5,981,-3,22.5,10.9,-9.5,22.2,11.2,-9.4,5.73,1.94,-8.3,26.6
2015-05-18 01:38:00,0.0,1.90837,0.00042,403.401,0.026,0.4032,0.0026,139.997,45.000,34211.71232,1.91602,405.381,32.367,45.068,45.000,0.00,0.09,-272.72,-272.78,-5,981,-3,22.5,10.9,-9.5,22.3,11.2,-9.4,5.73,1.94,-8.3,26.6
2015-05-18 01:39:00,0.0,1.90849,0.00033,403.402,0.028,0.3997,0.0020,139.996,45.000,34211.74922,1.91607,405.363,32.372,45.068,45.000,0.00,0.09,-272.72,-272.78,-5,981,-3,22.5,10.8,-9.6,22.2,11.1,-9.5,5.73,1.94,-8.3,26.7
2015-05-18 01:40:00,0.0,1.90826,0.00037,403.400,0.020,0.4029,0.0027,140.001,45.000,34213.28374,1.91592,405.379,32.367,45.068,45.000,0.00,0.09,-272.72,-272.77,-5,981,-4,22.5,10.9,-9.6,22.2,11.2,-9.4,5.73,1.95,-8.3,26.7
2015-05-18 01:41:00,0.0,1.90812,0.00029,403.400,0.028,0.4006,0.0022,139.999,45.000,34214.38607,1.91574,405.367,32.375,45.068,45.000,0.00,0.09,-272.72,-272.78,-5,981,-3,22.5,10.8,-9.6,22.2,11.2,-9.5,5.73,1.94,-8.3,26.7
2015-05-18 01:42:00,0.0,1.90824,0.00027,403.396,0.034,0.3975,0.0020,139.997,45.000,34213.45006,1.91580,405.343,32.372,45.068,45.000,0.00,0.09,-272.72,-272.78,-5,981,-3,22.5,10.7,-9.7,22.2,11.1,-9.5,5.73,1.94,-8.3,26.7
2015-05-18 01:43:00,0.0,1.90834,0.00021,403.433,0.023,0.3981,0.0022,139.999,45.000,34214.73080,1.91589,405.388,32.367,45.068,45.000,0.00,0.09,-272.71,-272.78,-5,981,-4,22.5,10.7,-9.8,22.3,11.0,-9.6,5.73,1.94,-8.3,26.7
2015-05-18 01:44:00,0.0,1.90832,0.00035,403.408,0.041,0.3964,0.0015,139.999,45.000,34214.82373,1.91588,405.354,32.364,45.068,45.000,0.00,0.09,-272.72,-272.78,-5,982,-3,22.6,10.7,-9.8,22.3,11.0,-9.6,5.73,1.94,-8.3,26.7
2015-05-18 01:45:00,0.0,1.90817,0.00030,403.416,0.042,0.3976,0.0022,140.002,45.000,34215.66534,1.91568,405.365,32.369,45.068,45.000,0.00,0.09,-272.72,-272.79,-6,981,-4,22.6,10.7,-9.7,22.3,11.0,-9.6,5.73,1.94,-8.3,26.7
2015-05-18 01:46:00,0.0,1.90841,0.00026,403.403,0.036,0.3947,0.0022,140.000,45.000,34214.31303,1.91592,405.341,32.375,45.068,45.000,0.00,0.09,-272.72,-272.77,-5,981,-3,22.6,10.6,-9.9,22.3,11.0,-9.7,5.73,1.95,-8.3,26.7